Weather History for MMMZ - August, 2013

Change the Weather History Date:

Tuesday, August 6, 2013

  Actual Average Record
Temperature  
Mean Temperature 83 °F -  
Max Temperature 91 °F 88 °F 93 °F (2010)
Min Temperature 75 °F 74 °F 68 °F (1999)
Cooling Degree Days 18    
Growing Degree Days 33 (Base 50)    
Moisture  
Dew Point 69 °F    
Average Humidity 61    
Maximum Humidity 81    
Minimum Humidity 49    
Precipitation  
Precipitation 0.00 in - - ()
Sea Level Pressure  
Sea Level Pressure 29.89 in    
Wind  
Wind Speed 7 mph ()    
Max Wind Speed 16 mph    
Max Gust Speed -    
Visibility 11.1 miles    
Events      
Averages and records for this station are not official NWS values.
T = Trace of Precipitation, MM = Missing Value Source: Averaged Metar Reports

Daily Weather History Graph

Daily Weather History Graph

Search for Another Location

Airport or City:

Trip Planner

Search our weather history database for the weather conditions in past years. The results will help you decide how hot, cold, wet, or windy it might be!

Date:

Astronomy

Aug. 06, 2013 Rise Set
Actual Time 6:37 AM MDT 7:43 PM MDT
Civil Twilight 6:14 AM MDT 8:07 PM MDT
Nautical Twilight 5:45 AM MDT 8:35 PM MDT
Astronomical Twilight 5:16 AM MDT 9:04 PM MDT
Moon 6:24 AM MDT (8/6) 7:30 PM MDT (8/6)
Length of Visible Light 13h 53m
Length of Day
13h 05m
Waning Crescent, 0% of the Moon is Illuminated
Aug 6
Waning Crescent
Aug 6
New
Aug 14
First Quarter
Aug 20
Full
Aug 28
Last Quarter

Hourly Weather History & Observations

Time (MDT) Temp. Heat Index Dew Point Humidity Pressure Visibility Wind Dir Wind Speed Gust Speed Precip Events Conditions
12:00 AM 85 °F - 77 °F 72% 29.89 in - WNW 6.7 mph - -  
12:46 AM 80.6 °F 82.7 °F 66.2 °F 61% 29.88 in 10.0 mi WNW 6.9 mph - N/A   Scattered Clouds
1:47 AM 78.8 °F - 66.2 °F 65% 29.88 in 10.0 mi North 5.8 mph - N/A   Partly Cloudy
2:48 AM 78.8 °F - 66.2 °F 65% 29.87 in 10.0 mi North 6.9 mph - N/A   Scattered Clouds
3:00 AM 83 °F - 77 °F 77% 29.88 in - NW 4.5 mph - -  
3:40 AM 77.0 °F - 66.2 °F 69% 29.87 in 10.0 mi ENE 5.8 mph - N/A   Scattered Clouds
4:43 AM 75.2 °F - 66.2 °F 73% 29.86 in 10.0 mi Calm Calm - N/A   Scattered Clouds
5:44 AM 75.2 °F - 66.2 °F 73% 29.88 in 10.0 mi NNE 5.8 mph - N/A   Scattered Clouds
6:00 AM 81 °F - 76 °F 81% 29.89 in - Calm Calm - -  
6:42 AM 75.2 °F - 64.4 °F 69% 29.89 in 12.0 mi NNW 6.9 mph - N/A   Scattered Clouds
7:46 AM 75.2 °F - 66.2 °F 73% 29.90 in 12.0 mi North 6.9 mph - N/A   Scattered Clouds
8:43 AM 80.6 °F 83.2 °F 68.0 °F 65% 29.91 in 12.0 mi NE 8.1 mph - N/A   Partly Cloudy
9:00 AM 86 °F - 77 °F 69% 29.94 in - West 2.2 mph - -  
9:41 AM 84.2 °F 87.3 °F 68.0 °F 58% 29.93 in 12.0 mi South 6.9 mph - N/A   Scattered Clouds
10:43 AM 84.2 °F 87.3 °F 68.0 °F 58% 29.93 in 12.0 mi West 8.1 mph - N/A   Mostly Cloudy
11:40 AM 89.6 °F 94.7 °F 69.8 °F 52% 29.92 in 12.0 mi West 13.8 mph - N/A   Scattered Clouds
12:00 PM 90 °F - 78 °F 62% 29.94 in - WSW 6.7 mph - -  
12:40 PM 91.4 °F 96.8 °F 69.8 °F 49% 29.91 in 12.0 mi SW 10.4 mph - N/A   Mostly Cloudy
1:41 PM 91.4 °F 96.8 °F 69.8 °F 49% 29.88 in 12.0 mi WSW 13.8 mph - N/A   Scattered Clouds
2:43 PM 91.4 °F 96.8 °F 69.8 °F 49% 29.87 in 12.0 mi SW 16.1 mph - N/A   Partly Cloudy
3:00 PM 91 °F - 78 °F 59% 29.90 in - WSW 8.9 mph - -  
3:40 PM 89.6 °F 94.7 °F 69.8 °F 52% 29.86 in 12.0 mi WSW 16.1 mph - N/A   Partly Cloudy
4:44 PM 89.6 °F 94.7 °F 69.8 °F 52% 29.84 in 12.0 mi WSW 15.0 mph - N/A   Partly Cloudy
5:41 PM 89.6 °F 93.4 °F 68.0 °F 49% 29.83 in 12.0 mi West 16.1 mph - N/A   Mostly Cloudy
6:00 PM 90 °F - 78 °F 59% 29.86 in - West 11.2 mph - -  
6:40 PM 87.8 °F 91.4 °F 68.0 °F 52% 29.84 in 12.0 mi West 12.7 mph - N/A   Mostly Cloudy
7:42 PM 84.2 °F 85.6 °F 64.4 °F 51% 29.95 in 10.0 mi NNW 8.1 mph - N/A   Mostly Cloudy
8:45 PM 80.6 °F 81.8 °F 62.6 °F 54% 29.86 in 10.0 mi SW 8.1 mph - N/A   Mostly Cloudy
9:00 PM 87 °F - 71 °F 50% 29.88 in - WNW 8.9 mph - -  
9:42 PM 80.6 °F 81.8 °F 62.6 °F 54% 29.88 in 10.0 mi NNE 6.9 mph - N/A   Mostly Cloudy
10:43 PM 78.8 °F - 60.8 °F 54% 29.91 in 10.0 mi NNW 8.1 mph - N/A   Mostly Cloudy
11:45 PM 75.2 °F - 60.8 °F 61% 29.93 in 10.0 mi NNW 8.1 mph - N/A   Scattered Clouds